Armstrong, PA

10:19 AM EST on January 26, 2015 (GMT -0500)
APRSWXNET Williamsport PA US | Change Station
CLOSE
Current Station
Personal Weather Station
Location: Williamsport, PA
Elevation: 610 ft
Nearby Weather Stations
Active Advisory: Winter Weather Advisory Active Notice: Public Information Statement

Elev 610 ft 41.26 °N, 76.98 °W | Updated 45 minutes ago

Snow
Snow
19 °F
Feels Like 19 °F
N
0
Wind Variable Wind from West
Gusts 0.0 mph

Today
High -- | Low -- °F
--% Chance of Precip.
Yesterday
High -- | Low -- °F
Precip. -- in
7:24 AM 5:16 PM
Waxing Crescent, 44% visible
Pressure 29.90 in
Visibility 0.5 miles
Clouds
Windchill 19 °F
Dew Point 12 °F
Humidity 74%
Rainfall -999.00 in
Snow Depth Not available.
UV Not available.
Pollen .10 out of 12
Air Quality Not available.
Flu Activity Not available.
SPECI KIPT 261508Z 00000KT 1/2SM SN VV013 M07/M09 A2990 RMK AO2 P0001 T10671094

More Conditions Fewer Conditions

Pressure 29.90 in
Visibility 0.5 miles
Clouds
Windchill 19 °F
Dew Point 12 °F
Humidity 74%
Rainfall -999.00 in
Snow Depth Not available.
UV Not available.
Pollen .10 out of 12
Air Quality Not available.
Flu Activity Not available.
SPECI KIPT 261508Z 00000KT 1/2SM SN VV013 M07/M09 A2990 RMK AO2 P0001 T10671094

More Conditions Fewer Conditions

Nowcast | as of 8:30 am EST on January 26, 2015

Periods of snow...some heavy...will be across much of central and north central Pennsylvania through noontime. Most of the snow will be north and west of a Bloomsburg...Port Royal...Chambersburg line. The combination of cold temperatures...snow...and gusty winds will likely result in poor travel conditions. Persons traveling should allow extra travel time and use caution.

×

10-Day Weather Forecast

Almanac

Astronomy

Jan. 26, 2015 Rise Set
Actual Time
Civil Twilight
Nautical Twilight
Astronomical Twilight
Moon
Length of Visible Light
Length of Day
Tomorrow will be .
, % of the Moon is Illuminated

Today's Extremes

State Highs State Lows

Community

WunderPhotos

Upload Photos

1,790,234 photos uploaded!

WunderBlogs® & News

Nearby

Air Quality

  Air Quality AQ Index Pollutant
Not available.

Snow Depth

Station Depth Elevation

Earthquake Activity

City Distance Mag. Time & Date
Minimum magnitude displayed is 2.5.

Coastal Water Temperatures

Place Temperature

Nearby Weather Stations